EHI
8 8 7 6 5 6 10 14 16 17 19 22 23 23 21 20 18 16 15 15 17 19 19 19 22 26 26 25 26 28 25 21 16 9 3 1 0 1 3 3 2 1 0
8 8 8 6 5 6 8 11 13 15 16 18 20 21 19 17 15 14 13 13 14 16 16 16 19 22 23 23 25 25 23 20 14 9 5 2 1 2 3 3 1 1 1
7 8 7 5 3 3 5 7 10 13 13 15 16 17 16 15 13 12 12 12 13 13 13 13 15 18 19 19 20 19 17 15 11 8 7 4 2 3 3 2 1 1 2
6 6 5 3 2 1 2 4 6 9 12 12 12 13 13 13 12 11 12 13 13 12 12 12 12 12 12 11 10 11 11 9 7 5 5 3 3 3 2 1 0 1 1
6 5 4 2 2 1 0 1 2 5 8 10 10 9 9 10 10 10 11 12 12 11 11 11 10 8 5 3 3 5 6 7 5 3 2 1 1 1 1 0 0 0 0
5 5 4 3 3 2 1 1 1 2 4 6 7 7 7 9 10 10 10 10 10 9 8 9 8 6 3 1 1 2 4 4 4 3 1 0 0 0 0 0 0 0 0
2 3 4 4 3 3 3 2 2 3 3 4 5 7 8 9 9 8 8 8 8 7 6 7 7 6 3 1 0 1 2 2 2 2 1 0 0 1 0 0 0 0 0
1 1 2 2 2 2 3 3 3 4 4 4 5 7 8 8 7 7 7 7 7 6 5 5 6 4 3 1 0 0 0 0 1 1 0 0 0 0 0 0 0 0 0
0 0 0 1 1 1 1 2 2 3 3 3 3 4 5 5 6 6 6 6 5 4 4 4 4 3 3 2 1 0 0 0 0 0 0 0 0 0 0 0 0 0 0
0 0 0 0 0 0 0 1 1 1 1 1 1 2 3 4 4 5 5 4 3 3 3 3 2 2 2 2 2 1 0 0 0 0 0 0 0 0 0 0 0 0 0
0 0 0 0 0 0 0 0 0 0 0 0 1 2 3 3 3 3 2 1 1 1 1 1 1 1 1 1 1 1 0 0 0 0 0 0 0 0 0 0 0 0 0
0 0 0 0 0 0 0 0 1 1 0 0 1 2 3 3 2 1 0 0 0 0 0 0 0 0 0 0 0 0 0 0 0 0 0 0 0 0 0 0 0 0 0
0 0 0 0 0 0 0 1 2 2 1 0 1 2 3 2 2 1 1 0 0 0 0 0 0 0 0 0 0 0 0 0 0 0 0 1 1 1 0 0 0 0 0
0 0 0 0 0 1 1 1 3 3 3 2 2 3 2 2 2 2 2 1 1 1 1 1 1 0 0 0 0 0 0 0 0 0 0 1 2 1 0 0 0 0 0
0 0 0 1 1 2 2 3 3 4 4 4 3 3 3 3 3 3 3 2 2 2 2 2 2 1 0 0 0 0 1 1 1 0 0 0 1 1 0 0 0 0 0
0 0 1 2 3 3 3 3 3 3 4 4 3 3 3 3 3 2 2 3 3 3 3 3 3 2 1 0 0 1 2 2 2 1 0 0 0 0 0 0 0 0 0
0 1 1 3 3 3 3 3 3 3 3 3 3 3 3 3 2 1 1 2 3 3 3 3 3 2 1 0 0 1 2 3 3 1 0 0 0 0 0 0 0 0 0
1 2 3 3 3 3 3 3 3 3 3 3 3 3 3 3 2 1 1 2 2 2 2 3 3 3 1 0 0 1 2 3 3 2 0 0 0 0 0 0 0 0 0
3 3 3 3 3 3 3 3 3 3 3 3 3 3 3 3 3 2 1 1 1 1 1 1 2 3 2 1 0 1 2 3 3 2 0 0 0 0 0 0 0 0 0
3 3 3 3 3 3 3 3 3 3 3 3 3 3 3 3 3 3 3 2 1 1 1 0 1 2 2 1 0 1 2 3 3 2 1 0 0 0 0 0 0 0 0
3 3 3 3 3 3 3 2 2 2 2 3 3 3 3 3 3 3 3 3 3 2 2 1 1 1 1 0 0 1 2 3 3 2 1 0 0 0 0 0 0 0 0
3 3 3 3 3 3 3 3 3 3 3 3 3 3 3 2 2 2 2 3 3 3 3 3 2 1 0 0 0 0 1 1 2 2 1 0 0 0 0 0 0 0 0
3 3 3 3 3 3 3 3 3 3 3 3 3 3 3 3 2 1 1 1 2 2 2 3 3 2 1 0 0 0 0 1 1 1 0 0 0 0 0 0 0 0 1
3 3 3 3 3 2 2 2 3 3 3 3 3 3 3 3 2 1 0 0 1 1 1 1 2 3 2 1 0 0 0 0 0 0 0 0 0 1 1 1 1 1 2
3 3 3 3 2 1 0 1 3 3 3 3 3 3 3 2 2 1 0 0 0 0 0 0 1 2 2 1 0 0 0 0 0 0 0 0 0 1 2 2 2 2 2
3 3 3 2 1 0 0 1 2 3 3 3 3 3 3 3 3 2 1 0 0 0 0 0 0 1 1 0 0 0 0 0 0 0 0 0 0 1 1 1 1 1 1
Wind_Speed
7 7 7 7 7 7 7 6 5 4 2 1 0 0 0 0 1 1 1 2 2 2 3 3 2 3 3 3 3 3 3 2 2 2 1 1 1 1 0 0 1 2 3
6 6 6 7 7 7 7 6 6 5 4 2 1 1 0 0 1 1 2 3 3 3 2 3 2 3 3 3 3 2 2 2 2 2 2 2 2 1 0 1 1 2 2
6 6 6 6 7 7 7 6 6 5 5 3 1 1 1 1 1 1 1 3 3 3 3 3 3 2 2 1 2 2 2 2 2 2 2 2 3 2 2 1 2 2 2
6 6 6 6 6 6 6 6 6 6 5 3 3 2 1 1 1 1 1 2 2 3 3 4 3 3 2 2 2 1 2 2 2 2 2 2 1 3 3 2 2 2 2
7 6 6 6 6 6 6 6 6 6 5 5 4 2 2 2 2 2 2 2 2 3 4 4 3 3 2 2 2 2 1 2 2 2 1 1 1 2 2 3 3 2 2
8 7 7 6 6 6 6 6 6 6 6 6 5 5 4 3 2 3 3 2 2 3 4 4 4 3 3 2 2 2 1 1 2 2 2 2 2 2 2 3 4 3 2
8 8 7 6 5 6 6 6 6 6 6 6 6 5 4 3 3 3 3 3 3 3 5 5 4 3 3 3 3 2 2 2 1 1 1 1 1 1 1 3 4 3 3
9 8 7 6 5 5 5 5 6 6 6 6 6 5 4 3 4 4 4 4 3 4 5 4 4 4 4 3 3 2 2 2 1 1 1 0 1 1 2 2 4 4 3
9 8 7 6 5 5 5 4 5 5 6 6 5 5 5 5 5 4 4 4 4 3 4 4 4 4 4 3 3 3 4 3 3 3 2 1 1 1 1 2 3 3 4
10 9 7 6 5 5 4 4 5 5 5 5 5 5 5 5 5 5 6 6 5 4 4 5 5 5 4 4 3 4 5 4 4 3 3 3 2 2 2 2 1 1 2
11 9 8 7 6 5 4 4 4 5 5 5 5 5 5 5 5 5 6 5 5 5 5 5 5 6 5 5 4 5 5 5 5 4 4 4 4 3 2 2 2 1 2
11 10 9 7 6 5 4 4 4 4 5 5 5 5 5 5 5 6 6 5 5 5 5 5 6 6 6 6 6 5 5 5 5 5 5 5 4 4 3 2 3 3 3
11 10 9 7 6 6 4 4 4 4 4 4 5 5 5 5 6 6 5 5 6 6 6 6 7 7 6 6 6 6 6 6 5 5 5 5 5 5 4 4 4 3 4
11 10 9 7 6 5 5 4 4 4 4 4 5 5 5 5 5 5 5 5 5 6 7 7 7 7 7 7 7 6 6 6 6 6 6 6 6 5 4 4 4 4 4
11 10 9 8 7 6 5 4 4 4 4 4 5 5 4 5 5 5 5 6 6 6 6 6 7 7 7 7 7 6 6 6 7 7 7 8 8 8 5 4 4 4 3
11 10 10 9 8 7 6 4 4 4 4 4 5 5 5 5 6 6 5 6 6 6 6 7 7 8 8 9 9 6 7 7 7 7 6 7 7 8 8 8 8 5 3
11 11 10 9 7 7 6 5 4 5 5 5 5 5 5 5 5 6 6 6 6 6 6 7 7 9 10 9 9 8 5 7 7 6 5 6 7 5 7 7 7 7 7
11 10 9 9 8 7 6 5 5 5 5 5 5 5 5 5 5 6 6 6 5 6 6 6 7 8 9 9 8 8 5 7 7 7 6 6 7 7 5 5 6 6 6
10 10 9 9 8 8 7 6 6 5 5 5 5 5 5 5 5 6 7 6 5 6 5 6 7 7 8 9 8 8 4 6 7 7 8 7 7 8 6 3 5 6 5
10 10 10 10 9 8 7 7 6 6 6 6 5 5 5 6 6 6 6 5 4 4 5 7 7 7 7 7 8 9 3 5 5 5 7 10 9 8 7 3 4 5 4
12 11 11 9 8 8 7 7 7 6 6 6 6 6 6 6 6 5 4 4 4 5 5 6 6 6 6 6 8 10 5 4 4 5 5 7 7 7 7 5 4 4 2
12 11 10 9 8 8 7 7 7 7 6 6 6 6 5 5 5 5 4 4 4 5 4 4 4 5 5 6 6 8 8 7 4 5 5 6 5 5 4 4 4 3 5
11 10 10 10 9 7 7 8 7 6 7 6 6 5 5 4 4 3 4 3 3 3 3 3 3 4 5 5 3 3 4 6 4 5 6 4 2 1 2 2 2 4 2
11 10 11 11 9 8 7 7 7 6 7 6 6 5 4 4 4 2 2 3 2 2 2 2 3 4 4 3 3 2 2 3 2 2 3 3 2 2 1 2 2 0 3
10 10 10 10 10 9 8 7 7 6 6 6 5 4 4 4 4 4 5 4 6 6 4 4 3 3 4 6 7 6 5 5 5 4 1 1 2 2 2 2 2 1 1
10 10 10 10 10 9 8 8 7 7 6 6 4 3 4 3 3 4 5 6 5 4 4 5 5 5 6 3 3 3 4 4 7 6 1 2 2 2 2 2 1 1 2
Wind_Direction
91 75 66 61 61 58 53 47 42 42 42 60 325 194 117 60 64 17 358 350 348 328 305 299 285 274 254 250 242 225 215 208 177 195 206 158 116 80 57 201 151 134 127
106 86 73 66 61 58 53 50 42 32 26 35 8 354 356 71 65 13 30 7 4 342 312 304 294 287 269 248 237 217 220 203 189 208 210 204 175 131 95 131 136 134 135
121 102 81 65 59 54 47 44 39 37 33 23 31 94 134 118 66 16 31 9 0 360 348 327 310 295 288 292 254 232 218 217 214 229 230 216 198 155 141 154 146 138 135
127 109 91 72 60 55 52 48 43 37 31 30 40 38 44 55 30 1 14 17 17 9 356 347 330 311 320 304 275 253 250 225 213 219 244 269 211 183 162 162 157 137 129
129 111 95 83 70 61 58 54 51 45 36 36 46 51 60 59 41 20 27 13 36 23 9 356 345 338 339 329 300 286 261 232 221 223 210 226 238 238 185 177 168 145 113
133 119 106 94 79 67 64 61 57 51 43 42 46 49 55 52 42 29 22 22 35 27 18 7 2 358 357 342 321 301 280 267 236 223 200 201 197 208 199 185 170 150 126
141 134 121 105 89 75 63 60 60 55 47 48 47 46 48 54 49 26 29 19 24 20 16 12 8 6 6 2 360 3 338 320 285 237 219 227 232 202 188 159 154 141 131
147 138 124 112 99 84 69 61 61 58 52 51 46 41 36 39 46 37 26 30 25 26 15 12 14 18 21 21 18 16 23 13 5 28 31 353 58 116 148 157 150 145 144
149 141 130 118 105 94 79 66 67 64 57 54 51 49 45 45 46 42 38 42 37 30 28 25 22 26 35 37 33 44 43 43 37 48 64 56 62 84 110 143 163 162 162
152 143 134 127 116 107 98 82 71 66 59 56 47 52 49 49 47 45 46 40 35 32 32 36 37 38 41 46 45 58 56 54 53 48 49 44 63 73 93 131 155 193 167
153 146 142 136 126 113 99 88 82 76 66 59 54 53 51 50 51 52 47 41 35 35 41 43 45 46 46 53 56 55 60 58 58 55 58 55 60 72 86 93 105 111 124
150 147 143 137 130 117 101 87 81 79 72 65 60 58 57 56 52 50 46 43 43 43 50 52 53 52 52 55 55 53 52 55 59 60 66 65 68 70 71 76 84 87 96
151 148 145 143 136 125 114 101 91 80 74 72 69 63 54 55 53 47 44 47 48 47 50 53 55 54 57 58 55 55 54 52 54 58 62 67 73 66 63 66 77 89 100
155 150 148 144 136 130 122 114 96 87 85 79 72 64 56 54 53 53 55 57 55 54 54 55 56 55 56 57 55 58 59 57 57 58 60 59 63 64 66 72 79 88 101
157 155 151 145 144 138 128 117 105 96 90 85 77 71 68 68 64 59 58 60 61 61 62 64 63 59 56 49 42 52 63 62 62 61 62 65 68 59 49 62 82 98 112
157 156 152 149 149 141 135 131 124 112 102 88 80 77 72 72 69 64 63 64 64 64 62 62 65 63 56 35 27 26 57 57 59 60 63 80 80 82 78 68 60 52 78
156 155 153 150 148 144 144 141 126 119 111 98 91 86 82 76 72 71 70 69 70 70 68 66 67 70 59 38 30 22 41 59 54 52 52 61 70 72 84 96 101 76 61
152 150 148 146 146 146 143 135 125 118 111 99 90 87 83 81 79 78 74 71 72 72 70 65 66 72 61 38 28 10 48 61 57 53 55 59 58 49 38 75 88 91 83
142 141 142 142 146 146 142 135 126 121 113 101 93 88 81 79 80 77 72 67 70 74 76 72 68 71 65 35 16 354 63 67 64 57 49 50 61 35 4 64 93 97 101
132 133 137 143 146 143 141 137 129 123 112 104 97 88 82 80 79 77 75 75 74 73 77 77 69 69 66 41 15 349 55 69 72 75 76 62 44 22 1 42 80 91 92
133 137 141 142 142 142 141 134 125 119 113 108 101 90 86 89 88 85 80 83 82 76 74 80 79 73 62 61 31 8 18 40 53 66 69 65 39 25 9 359 46 46 357
136 139 140 138 139 142 141 133 122 120 116 110 102 96 89 85 93 96 92 85 90 99 97 95 90 90 79 51 44 25 20 0 37 50 57 66 37 22 10 26 40 331 290
137 139 139 136 138 143 144 132 126 127 124 116 105 103 100 93 93 98 99 94 85 90 94 98 95 91 93 99 86 50 22 4 21 47 48 28 350 290 141 117 291 275 269
139 142 142 140 140 142 137 128 130 133 129 121 115 116 116 111 99 85 79 74 63 68 87 85 86 93 96 81 87 117 140 168 138 91 135 201 265 276 58 183 214 330 27
144 147 145 141 141 141 137 136 138 139 131 124 120 123 110 96 94 71 38 28 51 30 9 33 52 54 68 47 16 353 14 11 22 334 254 173 148 154 111 91 75 78 121
146 146 143 142 144 145 142 141 144 142 139 137 137 129 116 110 117 121 113 65 54 68 44 18 4 58 66 58 35 23 356 335 322 309 14 52 45 40 54 45 49 50 33